| time (UTC) | temp F | wind direction | speed MPH | gust MPH | rain 1hr in | rain 24hr in | rain mn in | humidity % | barometer mb |
| 20260906073133 | 57 | 83 | 1.0 | 2.0 | 0.00 | 0.00 | 0.00 | 95 | 1011.0 |
| 20260906073007 | 58 | 55 | 0.0 | 0.0 | 0.00 | 0.00 | 0.00 | 94 | 1009.2 |
| 20260906072628 | 57 | 60 | 1.0 | 2.0 | 0.00 | 0.00 | 0.00 | 95 | 1010.8 |
| 20260906072124 | 57 | 76 | 2.0 | 2.0 | 0.00 | 0.00 | 0.00 | 95 | 1010.9 |
| 20260906071621 | 57 | 63 | 2.0 | 2.0 | 0.00 | 0.00 | 0.00 | 95 | 1010.8 |
| 20260906071121 | 57 | 76 | 1.0 | 2.0 | 0.00 | 0.00 | 0.00 | 95 | 1011.0 |
| 20260906070617 | 57 | 67 | 2.0 | 2.0 | 0.00 | 0.00 | 0.00 | 95 | 1010.8 |
| 20260906070113 | 57 | 75 | 2.0 | 2.0 | 0.00 | 0.00 | 0.00 | 95 | 1010.9 |
| 20260906070007 | 58 | 55 | 0.0 | 0.0 | 0.00 | 0.00 | 0.00 | 93 | 1009.2 |
| 20260906065612 | 57 | 66 | 2.0 | 2.0 | 0.00 | 0.00 | 0.00 | 95 | 1010.9 |
| 20260906065108 | 57 | 71 | 1.0 | 2.0 | 0.00 | 0.00 | 0.00 | 95 | 1010.8 |
| 20260906064603 | 57 | 73 | 1.0 | 2.0 | 0.00 | 0.00 | 0.00 | 95 | 1010.9 |
| 20260906064506 | 58 | 55 | 0.0 | 0.0 | 0.00 | 0.00 | 0.00 | 93 | 1009.1 |
| 20260906064058 | 57 | 66 | 2.0 | 2.0 | 0.00 | 0.00 | 0.00 | 95 | 1010.7 |
| 20260906063553 | 57 | 59 | 0.0 | 3.0 | 0.00 | 0.00 | 0.00 | 95 | 1010.6 |
| 20260906063050 | 57 | 32 | 2.0 | 2.0 | 0.00 | 0.00 | 0.00 | 95 | 1010.8 |
| 20260906063007 | 58 | 55 | 0.0 | 0.0 | 0.00 | 0.00 | 0.00 | 93 | 1009.1 |
| 20260906062545 | 57 | 40 | 2.0 | 2.0 | 0.00 | 0.00 | 0.00 | 95 | 1010.7 |
| 20260906062044 | 57 | 63 | 2.0 | 2.0 | 0.00 | 0.00 | 0.00 | 95 | 1011.0 |
| 20260906061541 | 57 | 51 | 1.0 | 2.0 | 0.00 | 0.00 | 0.00 | 94 | 1010.8 |
| 20260906061507 | 58 | 55 | 0.0 | 0.0 | 0.00 | 0.00 | 0.00 | 92 | 1009.2 |
| 20260906061039 | 57 | 50 | 2.0 | 2.0 | 0.00 | 0.00 | 0.00 | 94 | 1011.0 |
| 20260906060536 | 57 | 58 | 2.0 | 2.0 | 0.00 | 0.00 | 0.00 | 94 | 1010.9 |
| 20260906060033 | 57 | 59 | 2.0 | 2.0 | 0.00 | 0.00 | 0.00 | 94 | 1010.9 |
| 20260906060006 | 58 | 55 | 0.0 | 0.0 | 0.00 | 0.00 | 0.00 | 92 | 1009.3 |
| 20260906055529 | 57 | 51 | 2.0 | 3.0 | 0.00 | 0.00 | 0.00 | 94 | 1010.9 |
| 20260906055024 | 57 | 86 | 2.0 | 2.0 | 0.00 | 0.00 | 0.00 | 94 | 1011.0 |
| 20260906054524 | 57 | 61 | 2.0 | 2.0 | 0.00 | 0.00 | 0.00 | 93 | 1011.1 |
| 20260906054507 | 59 | 55 | 0.0 | 0.0 | 0.00 | 0.00 | 0.00 | 91 | 1009.2 |
| 20260906054019 | 57 | 76 | 2.0 | 2.0 | 0.00 | 0.00 | 0.00 | 93 | 1010.9 |
| 20260906053516 | 58 | 81 | 2.0 | 2.0 | 0.00 | 0.00 | 0.00 | 93 | 1011.2 |
| 20260906053011 | 58 | 43 | 2.0 | 3.0 | 0.00 | 0.00 | 0.00 | 93 | 1010.9 |
| 20260906053009 | 59 | 55 | 0.0 | 0.0 | 0.00 | 0.00 | 0.00 | 91 | 1009.2 |
| 20260906052507 | 58 | 58 | 2.0 | 2.0 | 0.00 | 0.00 | 0.00 | 92 | 1010.8 |
| 20260906052004 | 58 | 74 | 1.0 | 2.0 | 0.00 | 0.00 | 0.00 | 92 | 1011.0 |
| 20260906051459 | 58 | 79 | 2.0 | 2.0 | 0.00 | 0.00 | 0.00 | 92 | 1011.0 |
| 20260906050954 | 59 | 52 | 2.0 | 3.0 | 0.00 | 0.00 | 0.00 | 92 | 1011.0 |
| 20260906050454 | 59 | 67 | 2.0 | 3.0 | 0.00 | 0.00 | 0.00 | 91 | 1011.1 |
| 20260906050006 | 60 | 55 | 0.0 | 0.0 | 0.00 | 0.00 | 0.00 | 91 | 1009.4 |
| 20260906045953 | 59 | 62 | 2.0 | 2.0 | 0.00 | 0.00 | 0.00 | 91 | 1011.1 |
| 20260906045452 | 59 | 67 | 1.0 | 2.0 | 0.00 | 0.00 | 0.00 | 92 | 1010.9 |
| 20260906044948 | 59 | 91 | 1.0 | 2.0 | 0.00 | 0.00 | 0.00 | 91 | 1011.1 |
| 20260906044506 | 60 | 55 | 0.0 | 0.0 | 0.00 | 0.00 | 0.00 | 90 | 1009.6 |
| 20260906044443 | 59 | 47 | 1.0 | 2.0 | 0.00 | 0.00 | 0.00 | 91 | 1011.2 |
| 20260906043939 | 59 | 71 | 1.0 | 2.0 | 0.00 | 0.00 | 0.00 | 91 | 1011.0 |
| 20260906043435 | 59 | 49 | 2.0 | 2.0 | 0.00 | 0.00 | 0.00 | 91 | 1011.0 |
| 20260906042930 | 59 | 65 | 1.0 | 2.0 | 0.00 | 0.00 | 0.00 | 91 | 1011.1 |
| 20260906042429 | 59 | 65 | 0.0 | 2.0 | 0.00 | 0.00 | 0.00 | 92 | 1010.8 |
| 20260906041924 | 59 | 70 | 1.0 | 2.0 | 0.00 | 0.00 | 0.00 | 91 | 1010.8 |
| 20260906041506 | 60 | 55 | 0.0 | 1.0 | 0.00 | 0.00 | 0.00 | 91 | 1009.2 |
| 20260906041420 | 59 | 70 | 1.0 | 2.0 | 0.00 | 0.00 | 0.00 | 92 | 1011.2 |
| 20260906040920 | 59 | 40 | 0.0 | 2.0 | 0.00 | 0.00 | 0.00 | 92 | 1010.9 |
| 20260906040415 | 59 | 74 | 1.0 | 3.0 | 0.00 | 0.00 | 0.00 | 92 | 1011.0 |
| 20260906040009 | 60 | 55 | 0.0 | 0.0 | 0.00 | 0.00 | 0.00 | 91 | 1009.3 |
| 20260906035911 | 59 | 71 | 1.0 | 2.0 | 0.00 | 0.00 | 0.00 | 92 | 1010.9 |
| 20260906035407 | 59 | 67 | 1.0 | 2.0 | 0.00 | 0.00 | 0.00 | 92 | 1010.9 |
| 20260906034902 | 59 | 58 | 1.0 | 2.0 | 0.00 | 0.00 | 0.00 | 92 | 1010.9 |
| 20260906034401 | 59 | 69 | 1.0 | 2.0 | 0.00 | 0.00 | 0.00 | 92 | 1010.9 |
| 20260906033858 | 59 | 83 | 0.0 | 2.0 | 0.00 | 0.00 | 0.00 | 92 | 1010.7 |
| 20260906033357 | 59 | 69 | 2.0 | 2.0 | 0.00 | 0.00 | 0.00 | 92 | 1010.8 |
| 20260906033007 | 60 | 55 | 0.0 | 0.0 | 0.00 | 0.00 | 0.00 | 90 | 1009.1 |
| 20260906032853 | 59 | 72 | 1.0 | 3.0 | 0.00 | 0.00 | 0.00 | 92 | 1010.7 |
| 20260906032349 | 59 | 66 | 2.0 | 2.0 | 0.00 | 0.00 | 0.00 | 92 | 1010.7 |
| 20260906031844 | 59 | 58 | 1.0 | 2.0 | 0.00 | 0.00 | 0.00 | 92 | 1010.6 |
| 20260906031506 | 61 | 55 | 0.0 | 0.0 | 0.00 | 0.00 | 0.00 | 90 | 1008.9 |
| 20260906031339 | 59 | 98 | 0.0 | 2.0 | 0.00 | 0.00 | 0.00 | 91 | 1010.7 |
| 20260906030839 | 60 | 96 | 0.0 | 2.0 | 0.00 | 0.00 | 0.00 | 91 | 1010.5 |
| 20260906030334 | 60 | 62 | 0.0 | 2.0 | 0.00 | 0.00 | 0.00 | 91 | 1010.5 |
| 20260906025829 | 60 | 54 | 0.0 | 2.0 | 0.00 | 0.00 | 0.00 | 91 | 1010.4 |
| 20260906025323 | 60 | 52 | 1.0 | 2.0 | 0.00 | 0.00 | 0.00 | 91 | 1010.5 |
| 20260906024822 | 60 | 59 | 0.0 | 2.0 | 0.00 | 0.00 | 0.00 | 92 | 1010.6 |
| 20260906024321 | 60 | 93 | 0.0 | 1.0 | 0.00 | 0.00 | 0.00 | 92 | 1010.4 |
| 20260906023817 | 60 | 159 | 0.0 | 1.0 | 0.00 | 0.00 | 0.00 | 91 | 1010.5 |
| 20260906023312 | 60 | 58 | 2.0 | 2.0 | 0.00 | 0.00 | 0.00 | 90 | 1010.5 |
| 20260906023007 | 62 | 21 | 0.0 | 0.0 | 0.00 | 0.00 | 0.00 | 87 | 1008.8 |
| 20260906022808 | 60 | 53 | 2.0 | 3.0 | 0.00 | 0.00 | 0.00 | 90 | 1010.5 |
| 20260906022306 | 60 | 51 | 1.0 | 2.0 | 0.00 | 0.00 | 0.00 | 90 | 1010.5 |
| 20260906021759 | 60 | 50 | 0.0 | 2.0 | 0.00 | 0.00 | 0.00 | 89 | 1010.3 |
| 20260906021506 | 62 | 21 | 0.0 | 0.0 | 0.00 | 0.00 | 0.00 | 86 | 1008.7 |
| 20260906021257 | 60 | 49 | 0.0 | 2.0 | 0.00 | 0.00 | 0.00 | 89 | 1010.4 |
| 20260906020752 | 61 | 46 | 2.0 | 2.0 | 0.00 | 0.00 | 0.00 | 88 | 1010.6 |
| 20260906020252 | 61 | 46 | 2.0 | 2.0 | 0.00 | 0.00 | 0.00 | 88 | 1010.4 |
| 20260906020007 | 62 | 21 | 0.0 | 0.0 | 0.00 | 0.00 | 0.00 | 85 | 1008.8 |
| 20260906015752 | 61 | 45 | 2.0 | 3.0 | 0.00 | 0.00 | 0.00 | 88 | 1010.3 |
| 20260906015251 | 61 | 66 | 1.0 | 2.0 | 0.00 | 0.00 | 0.00 | 87 | 1010.2 |
| 20260906014746 | 61 | 96 | 0.0 | 2.0 | 0.00 | 0.00 | 0.00 | 87 | 1010.4 |
| 20260906014507 | 63 | 21 | 0.0 | 1.0 | 0.00 | 0.00 | 0.00 | 84 | 1008.8 |
| 20260906014241 | 62 | 56 | 1.0 | 2.0 | 0.00 | 0.00 | 0.00 | 87 | 1010.4 |
| 20260906013737 | 62 | 79 | 1.0 | 2.0 | 0.00 | 0.00 | 0.00 | 86 | 1010.5 |
| 20260906013237 | 62 | 44 | 1.0 | 2.0 | 0.00 | 0.00 | 0.00 | 85 | 1010.4 |
| 20260906013007 | 64 | 21 | 0.0 | 0.0 | 0.00 | 0.00 | 0.00 | 83 | 1008.6 |
| 20260906012732 | 62 | 61 | 1.0 | 2.0 | 0.00 | 0.00 | 0.00 | 85 | 1010.4 |
| 20260906012227 | 62 | 66 | 1.0 | 2.0 | 0.00 | 0.00 | 0.00 | 85 | 1010.4 |
| 20260906011723 | 62 | 78 | 1.0 | 2.0 | 0.00 | 0.00 | 0.00 | 84 | 1010.3 |
| 20260906011508 | 64 | 21 | 0.0 | 1.0 | 0.00 | 0.00 | 0.00 | 81 | 1008.7 |
| 20260906011217 | 62 | 82 | 0.0 | 2.0 | 0.00 | 0.00 | 0.00 | 83 | 1010.2 |
| 20260906010713 | 63 | 57 | 2.0 | 3.0 | 0.00 | 0.00 | 0.00 | 83 | 1010.4 |
| 20260906010209 | 63 | 54 | 1.0 | 2.0 | 0.00 | 0.00 | 0.00 | 82 | 1010.1 |
| 20260906010007 | 65 | 21 | 0.0 | 0.0 | 0.00 | 0.00 | 0.00 | 79 | 1008.6 |
| 20260906005709 | 63 | 49 | 0.0 | 1.0 | 0.00 | 0.00 | 0.00 | 82 | 1010.5 |
| 20260906005208 | 63 | 62 | 0.0 | 2.0 | 0.00 | 0.00 | 0.00 | 82 | 1010.2 |
| 20260906004707 | 63 | 49 | 1.0 | 2.0 | 0.00 | 0.00 | 0.00 | 82 | 1010.0 |
| 20260906004507 | 66 | 21 | 0.0 | 1.0 | 0.00 | 0.00 | 0.00 | 78 | 1008.2 |
| 20260906004202 | 64 | 35 | 1.0 | 2.0 | 0.00 | 0.00 | 0.00 | 82 | 1010.0 |
| 20260906003658 | 64 | 82 | 1.0 | 2.0 | 0.00 | 0.00 | 0.00 | 81 | 1009.7 |
| 20260906003154 | 64 | 45 | 2.0 | 3.0 | 0.00 | 0.00 | 0.00 | 80 | 1009.7 |
| 20260906003007 | 67 | 21 | 0.0 | 0.0 | 0.00 | 0.00 | 0.00 | 76 | 1008.1 |
| 20260906002653 | 65 | 74 | 0.0 | 2.0 | 0.00 | 0.00 | 0.00 | 78 | 1009.7 |
| 20260906002148 | 65 | 62 | 2.0 | 2.0 | 0.00 | 0.00 | 0.00 | 77 | 1009.5 |
| 20260906001644 | 66 | 48 | 2.0 | 2.0 | 0.00 | 0.00 | 0.00 | 76 | 1009.4 |
| 20260906001507 | 68 | 21 | 0.0 | 0.0 | 0.00 | 0.00 | 0.00 | 73 | 1008.0 |
| 20260906001143 | 66 | 61 | 0.0 | 2.0 | 0.00 | 0.00 | 0.00 | 76 | 1009.7 |
| 20260906000639 | 66 | 60 | 0.0 | 2.0 | 0.00 | 0.00 | 0.00 | 75 | 1009.6 |
| 20260906000134 | 66 | 40 | 1.0 | 2.0 | 0.00 | 0.00 | 0.00 | 74 | 1009.3 |
| 20260906000008 | 68 | 21 | 0.0 | 0.0 | 0.00 | 0.00 | 0.00 | 71 | 1007.7 |
| 20260905235633 | 67 | 81 | 1.0 | 2.0 | 0.00 | 0.00 | 0.00 | 72 | 1009.2 |
| 20260905235128 | 67 | 63 | 2.0 | 2.0 | 0.00 | 0.00 | 0.00 | 71 | 1009.2 |
| 20260905234624 | 68 | 51 | 0.0 | 2.0 | 0.00 | 0.00 | 0.00 | 69 | 1009.3 |
| 20260905234507 | 69 | 21 | 0.0 | 0.0 | 0.00 | 0.00 | 0.00 | 67 | 1007.6 |
| 20260905234120 | 68 | 83 | 1.0 | 2.0 | 0.00 | 0.00 | 0.00 | 67 | 1009.3 |
| 20260905233620 | 69 | 44 | 0.0 | 2.0 | 0.00 | 0.00 | 0.00 | 67 | 1009.1 |
| 20260905233114 | 69 | 72 | 0.0 | 2.0 | 0.00 | 0.00 | 0.00 | 65 | 1009.4 |
| 20260905233008 | 70 | 21 | 0.0 | 1.0 | 0.00 | 0.00 | 0.00 | 64 | 1007.6 |
| 20260905232609 | 69 | 66 | 1.0 | 2.0 | 0.00 | 0.00 | 0.00 | 64 | 1009.3 |
| 20260905232105 | 69 | 63 | 0.0 | 2.0 | 0.00 | 0.00 | 0.00 | 63 | 1009.3 |
| 20260905231600 | 70 | 24 | 2.0 | 2.0 | 0.00 | 0.00 | 0.00 | 62 | 1009.3 |
| 20260905231056 | 70 | 34 | 2.0 | 2.0 | 0.00 | 0.00 | 0.00 | 62 | 1009.1 |
| 20260905230556 | 71 | 16 | 1.0 | 2.0 | 0.00 | 0.00 | 0.00 | 62 | 1009.1 |
| 20260905230054 | 71 | 55 | 2.0 | 2.0 | 0.00 | 0.00 | 0.00 | 60 | 1009.2 |
| 20260905225548 | 71 | 33 | 2.0 | 2.0 | 0.00 | 0.00 | 0.00 | 60 | 1009.1 |
| 20260905225043 | 71 | 25 | 1.0 | 2.0 | 0.00 | 0.00 | 0.00 | 59 | 1009.0 |
| 20260905224543 | 72 | 69 | 1.0 | 2.0 | 0.00 | 0.00 | 0.00 | 59 | 1009.1 |
| 20260905224507 | 72 | 128 | 0.0 | 3.0 | 0.00 | 0.00 | 0.00 | 59 | 1007.2 |
| 20260905224043 | 72 | 38 | 0.0 | 3.0 | 0.00 | 0.00 | 0.00 | 58 | 1009.0 |
| 20260905223541 | 72 | 73 | 2.0 | 3.0 | 0.00 | 0.00 | 0.00 | 58 | 1008.9 |
| 20260905223036 | 72 | 85 | 2.0 | 3.0 | 0.00 | 0.00 | 0.00 | 58 | 1009.0 |
| 20260905223007 | 73 | 345 | 1.0 | 3.0 | 0.00 | 0.00 | 0.00 | 58 | 1007.3 |
| 20260905222536 | 73 | 102 | 2.0 | 3.0 | 0.00 | 0.00 | 0.00 | 57 | 1009.0 |
| 20260905222032 | 73 | 37 | 1.0 | 4.0 | 0.00 | 0.00 | 0.00 | 57 | 1009.0 |
| 20260905221528 | 73 | 35 | 1.0 | 2.0 | 0.00 | 0.00 | 0.00 | 58 | 1009.0 |
| 20260905221507 | 73 | 91 | 0.0 | 3.0 | 0.00 | 0.00 | 0.00 | 59 | 1007.2 |
| 20260905221024 | 73 | 80 | 1.0 | 3.0 | 0.00 | 0.00 | 0.00 | 57 | 1008.9 |
| 20260905220520 | 73 | 152 | 1.0 | 4.0 | 0.00 | 0.00 | 0.00 | 57 | 1009.0 |
| 20260905220016 | 73 | 91 | 2.0 | 3.0 | 0.00 | 0.00 | 0.00 | 56 | 1008.9 |
| 20260905215510 | 73 | 27 | 1.0 | 2.0 | 0.00 | 0.00 | 0.00 | 57 | 1008.8 |
| 20260905215006 | 73 | 270 | 2.0 | 2.0 | 0.00 | 0.00 | 0.00 | 58 | 1008.8 |
| 20260905214507 | 73 | 158 | 1.0 | 3.0 | 0.00 | 0.00 | 0.00 | 57 | 1007.0 |
| 20260905214501 | 73 | 136 | 1.0 | 3.0 | 0.00 | 0.00 | 0.00 | 55 | 1008.7 |
| 20260905214001 | 73 | 118 | 0.0 | 3.0 | 0.00 | 0.00 | 0.00 | 56 | 1008.8 |
| 20260905213457 | 73 | 346 | 0.0 | 2.0 | 0.00 | 0.00 | 0.00 | 58 | 1009.0 |
| 20260905213007 | 74 | 64 | 1.0 | 3.0 | 0.00 | 0.00 | 0.00 | 56 | 1006.9 |
| 20260905212953 | 73 | 22 | 2.0 | 3.0 | 0.00 | 0.00 | 0.00 | 55 | 1008.7 |
| 20260905212453 | 74 | 27 | 1.0 | 3.0 | 0.00 | 0.00 | 0.00 | 56 | 1008.6 |
| 20260905211952 | 74 | 41 | 0.0 | 3.0 | 0.00 | 0.00 | 0.00 | 56 | 1008.8 |
| 20260905211447 | 74 | 22 | 2.0 | 4.0 | 0.00 | 0.00 | 0.00 | 55 | 1008.7 |
| 20260905210943 | 73 | 16 | 2.0 | 3.0 | 0.00 | 0.00 | 0.00 | 57 | 1008.6 |
| 20260905210438 | 73 | 254 | 0.0 | 2.0 | 0.00 | 0.00 | 0.00 | 58 | 1008.7 |
| 20260905210007 | 74 | 97 | 1.0 | 3.0 | 0.00 | 0.00 | 0.00 | 57 | 1006.9 |
| 20260905205938 | 73 | 34 | 1.0 | 2.0 | 0.00 | 0.00 | 0.00 | 57 | 1008.6 |
| 20260905205432 | 74 | 116 | 2.0 | 5.0 | 0.00 | 0.00 | 0.00 | 55 | 1008.6 |
| 20260905204931 | 74 | 77 | 2.0 | 4.0 | 0.00 | 0.00 | 0.00 | 55 | 1008.6 |
| 20260905204507 | 75 | 116 | 1.0 | 3.0 | 0.00 | 0.00 | 0.00 | 56 | 1006.8 |
| 20260905204427 | 74 | 44 | 2.0 | 3.0 | 0.00 | 0.00 | 0.00 | 57 | 1008.6 |
| 20260905203926 | 74 | 40 | 2.0 | 3.0 | 0.00 | 0.00 | 0.00 | 56 | 1008.4 |
| 20260905203422 | 75 | 4 | 2.0 | 4.0 | 0.00 | 0.00 | 0.00 | 54 | 1008.3 |
| 20260905203008 | 75 | 10 | 1.0 | 3.0 | 0.00 | 0.00 | 0.00 | 55 | 1006.5 |
| 20260905202917 | 75 | 8 | 2.0 | 3.0 | 0.00 | 0.00 | 0.00 | 55 | 1008.3 |
| 20260905202413 | 75 | 18 | 1.0 | 3.0 | 0.00 | 0.00 | 0.00 | 53 | 1008.4 |
| 20260905201908 | 76 | 80 | 2.0 | 5.0 | 0.00 | 0.00 | 0.00 | 52 | 1008.2 |
| 20260905201403 | 76 | 18 | 1.0 | 4.0 | 0.00 | 0.00 | 0.00 | 51 | 1008.3 |
| 20260905200857 | 75 | 52 | 2.0 | 3.0 | 0.00 | 0.00 | 0.00 | 52 | 1008.4 |
| 20260905200353 | 75 | 33 | 2.0 | 3.0 | 0.00 | 0.00 | 0.00 | 51 | 1008.4 |
| 20260905200008 | 77 | 8 | 1.0 | 5.0 | 0.00 | 0.00 | 0.00 | 49 | 1006.5 |
| 20260905195851 | 77 | 3 | 3.0 | 4.0 | 0.00 | 0.00 | 0.00 | 48 | 1008.4 |
| 20260905195347 | 79 | 44 | 3.0 | 4.0 | 0.00 | 0.00 | 0.00 | 46 | 1008.4 |
| 20260905194843 | 80 | 7 | 3.0 | 4.0 | 0.00 | 0.00 | 0.00 | 45 | 1008.3 |
| 20260905194508 | 77 | 122 | 1.0 | 3.0 | 0.00 | 0.00 | 0.00 | 51 | 1006.4 |
| 20260905194342 | 78 | 2 | 0.0 | 5.0 | 0.00 | 0.00 | 0.00 | 49 | 1008.3 |
| 20260905193841 | 78 | 38 | 1.0 | 3.0 | 0.00 | 0.00 | 0.00 | 46 | 1008.3 |
| 20260905193336 | 76 | 65 | 2.0 | 3.0 | 0.00 | 0.00 | 0.00 | 51 | 1008.4 |
| 20260905193006 | 76 | 96 | 1.0 | 5.0 | 0.00 | 0.00 | 0.00 | 49 | 1006.6 |
| 20260905192832 | 77 | 8 | 3.0 | 3.0 | 0.00 | 0.00 | 0.00 | 48 | 1008.7 |
| 20260905192328 | 78 | 95 | 0.0 | 3.0 | 0.00 | 0.00 | 0.00 | 46 | 1008.4 |
| 20260905191827 | 78 | 115 | 3.0 | 3.0 | 0.00 | 0.00 | 0.00 | 47 | 1008.5 |
| 20260905191506 | 77 | 82 | 1.0 | 3.0 | 0.00 | 0.00 | 0.00 | 50 | 1006.6 |
| 20260905191326 | 78 | 11 | 4.0 | 5.0 | 0.00 | 0.00 | 0.00 | 45 | 1008.5 |
| 20260905190825 | 79 | 86 | 2.0 | 3.0 | 0.00 | 0.00 | 0.00 | 49 | 1008.5 |
| 20260905190319 | 78 | 13 | 2.0 | 2.0 | 0.00 | 0.00 | 0.00 | 49 | 1008.6 |
| 20260905190006 | 76 | 208 | 1.0 | 3.0 | 0.00 | 0.00 | 0.00 | 53 | 1006.8 |
| 20260905185818 | 77 | 135 | 3.0 | 4.0 | 0.00 | 0.00 | 0.00 | 48 | 1008.9 |
| 20260905185313 | 77 | 234 | 2.0 | 3.0 | 0.00 | 0.00 | 0.00 | 55 | 1008.7 |
| 20260905184812 | 76 | 302 | 1.0 | 4.0 | 0.00 | 0.00 | 0.00 | 51 | 1008.7 |
| 20260905184506 | 75 | 128 | 1.0 | 6.0 | 0.00 | 0.00 | 0.00 | 54 | 1006.9 |
| 20260905184311 | 75 | 89 | 2.0 | 3.0 | 0.00 | 0.00 | 0.00 | 52 | 1008.7 |
| 20260905183810 | 76 | 31 | 3.0 | 4.0 | 0.00 | 0.00 | 0.00 | 51 | 1008.7 |
| 20260905183306 | 76 | 209 | 0.0 | 4.0 | 0.00 | 0.00 | 0.00 | 54 | 1008.7 |
| 20260905183007 | 75 | 160 | 1.0 | 3.0 | 0.00 | 0.00 | 0.00 | 54 | 1006.9 |
| 20260905182806 | 76 | 112 | 0.0 | 3.0 | 0.00 | 0.00 | 0.00 | 54 | 1008.7 |
| 20260905182306 | 76 | 44 | 3.0 | 4.0 | 0.00 | 0.00 | 0.00 | 52 | 1008.7 |
| 20260905181801 | 75 | 87 | 2.0 | 4.0 | 0.00 | 0.00 | 0.00 | 53 | 1008.7 |
| 20260905181508 | 75 | 124 | 1.0 | 3.0 | 0.00 | 0.00 | 0.00 | 52 | 1006.9 |
| 20260905181301 | 75 | 47 | 0.0 | 2.0 | 0.00 | 0.00 | 0.00 | 52 | 1008.9 |
| 20260905180800 | 77 | 255 | 0.0 | 5.0 | 0.00 | 0.00 | 0.00 | 52 | 1008.8 |
| 20260905180255 | 77 | 249 | 2.0 | 3.0 | 0.00 | 0.00 | 0.00 | 53 | 1008.8 |
| 20260905180007 | 75 | 100 | 1.0 | 2.0 | 0.00 | 0.00 | 0.00 | 54 | 1006.8 |
| 20260905175750 | 75 | 64 | 1.0 | 2.0 | 0.00 | 0.00 | 0.00 | 54 | 1008.7 |
| 20260905175245 | 75 | 58 | 1.0 | 2.0 | 0.00 | 0.00 | 0.00 | 53 | 1008.9 |
| 20260905174740 | 76 | 57 | 1.0 | 2.0 | 0.00 | 0.00 | 0.00 | 53 | 1008.9 |
| 20260905174235 | 76 | 48 | 1.0 | 2.0 | 0.00 | 0.00 | 0.00 | 53 | 1008.8 |
| 20260905173732 | 77 | 76 | 1.0 | 3.0 | 0.00 | 0.00 | 0.00 | 54 | 1009.0 |
| 20260905173227 | 77 | 111 | 0.0 | 3.0 | 0.00 | 0.00 | 0.00 | 51 | 1008.9 |
| 20260905173007 | 75 | 130 | 1.0 | 3.0 | 0.00 | 0.00 | 0.00 | 58 | 1007.0 |
| 20260905172727 | 76 | 196 | 2.0 | 3.0 | 0.00 | 0.00 | 0.00 | 53 | 1009.0 |
| 20260905172227 | 76 | 123 | 2.0 | 3.0 | 0.00 | 0.00 | 0.00 | 52 | 1008.9 |
| 20260905171723 | 76 | 82 | 2.0 | 3.0 | 0.00 | 0.00 | 0.00 | 54 | 1009.1 |
| 20260905171507 | 73 | 254 | 1.0 | 3.0 | 0.00 | 0.00 | 0.00 | 60 | 1007.4 |
| 20260905171218 | 74 | 284 | 1.0 | 2.0 | 0.00 | 0.00 | 0.00 | 56 | 1009.2 |
| 20260905170716 | 73 | 187 | 0.0 | 2.0 | 0.00 | 0.00 | 0.00 | 57 | 1009.4 |
| 20260905170215 | 73 | 8 | 0.0 | 2.0 | 0.00 | 0.00 | 0.00 | 57 | 1009.4 |
| 20260905165715 | 73 | 154 | 0.0 | 3.0 | 0.00 | 0.00 | 0.00 | 58 | 1009.4 |
| 20260905165211 | 74 | 113 | 2.0 | 4.0 | 0.00 | 0.00 | 0.00 | 55 | 1009.4 |
| 20260905164710 | 75 | 86 | 3.0 | 4.0 | 0.00 | 0.00 | 0.00 | 53 | 1009.3 |
| 20260905164507 | 74 | 100 | 0.0 | 3.0 | 0.00 | 0.00 | 0.00 | 60 | 1007.5 |
| 20260905164211 | 74 | 59 | 1.0 | 2.0 | 0.00 | 0.00 | 0.00 | 59 | 1009.3 |
| 20260905163706 | 74 | 230 | 1.0 | 2.0 | 0.00 | 0.00 | 0.00 | 63 | 1009.3 |
| 20260905163203 | 74 | 189 | 1.0 | 3.0 | 0.00 | 0.00 | 0.00 | 57 | 1009.5 |
| 20260905163007 | 75 | 185 | 0.0 | 3.0 | 0.00 | 0.00 | 0.00 | 58 | 1007.5 |
| 20260905162659 | 75 | 126 | 1.0 | 3.0 | 0.00 | 0.00 | 0.00 | 56 | 1009.4 |
| 20260905162158 | 75 | 238 | 1.0 | 4.0 | 0.00 | 0.00 | 0.00 | 56 | 1009.4 |
| 20260905161653 | 76 | 27 | 5.0 | 5.0 | 0.00 | 0.00 | 0.00 | 53 | 1009.7 |
| 20260905161506 | 75 | 111 | 1.0 | 3.0 | 0.00 | 0.00 | 0.00 | 57 | 1007.6 |
| 20260905161151 | 75 | 108 | 1.0 | 3.0 | 0.00 | 0.00 | 0.00 | 56 | 1009.7 |
| 20260905160644 | 74 | 71 | 2.0 | 3.0 | 0.00 | 0.00 | 0.00 | 59 | 1009.6 |
| 20260905160143 | 73 | 111 | 2.0 | 4.0 | 0.00 | 0.00 | 0.00 | 56 | 1009.6 |
| 20260905155638 | 73 | 145 | 0.0 | 2.0 | 0.00 | 0.00 | 0.00 | 60 | 1009.6 |
| 20260905155137 | 73 | 67 | 2.0 | 4.0 | 0.00 | 0.00 | 0.00 | 56 | 1009.7 |
| 20260905154631 | 75 | 136 | 1.0 | 4.0 | 0.00 | 0.00 | 0.00 | 53 | 1009.7 |
| 20260905154507 | 74 | 71 | 1.0 | 5.0 | 0.00 | 0.00 | 0.00 | 57 | 1007.8 |
| 20260905154127 | 75 | 94 | 2.0 | 4.0 | 0.00 | 0.00 | 0.00 | 54 | 1009.5 |
| 20260905153623 | 74 | 28 | 2.0 | 3.0 | 0.00 | 0.00 | 0.00 | 58 | 1009.6 |
| 20260905153118 | 73 | 45 | 4.0 | 4.0 | 0.00 | 0.00 | 0.00 | 58 | 1009.6 |
| 20260905153008 | 73 | 36 | 1.0 | 3.0 | 0.00 | 0.00 | 0.00 | 59 | 1007.7 |
| 20260905152613 | 72 | 5 | 2.0 | 4.0 | 0.00 | 0.00 | 0.00 | 59 | 1009.8 |
| 20260905152108 | 72 | 69 | 1.0 | 3.0 | 0.00 | 0.00 | 0.00 | 60 | 1009.7 |
| 20260905151603 | 74 | 62 | 2.0 | 3.0 | 0.00 | 0.00 | 0.00 | 56 | 1009.7 |
| 20260905151507 | 73 | 352 | 1.0 | 5.0 | 0.00 | 0.00 | 0.00 | 60 | 1008.0 |
| 20260905151058 | 74 | 43 | 2.0 | 2.0 | 0.00 | 0.00 | 0.00 | 59 | 1009.8 |
| 20260905150553 | 73 | 43 | 1.0 | 4.0 | 0.00 | 0.00 | 0.00 | 62 | 1009.5 |
| 20260905150052 | 73 | 94 | 2.0 | 5.0 | 0.00 | 0.00 | 0.00 | 59 | 1009.6 |
| 20260905150006 | 72 | 334 | 1.0 | 3.0 | 0.00 | 0.00 | 0.00 | 65 | 1008.0 |
| 20260905145550 | 72 | 78 | 0.0 | 2.0 | 0.00 | 0.00 | 0.00 | 63 | 1009.7 |
| 20260905145049 | 74 | 158 | 1.0 | 4.0 | 0.00 | 0.00 | 0.00 | 60 | 1009.7 |
| 20260905144545 | 75 | 104 | 4.0 | 4.0 | 0.00 | 0.00 | 0.00 | 59 | 1009.8 |
| 20260905144507 | 72 | 165 | 1.0 | 3.0 | 0.00 | 0.00 | 0.00 | 68 | 1008.0 |
| 20260905144044 | 74 | 227 | 0.0 | 2.0 | 0.00 | 0.00 | 0.00 | 65 | 1009.7 |
| 20260905143543 | 73 | 95 | 0.0 | 2.0 | 0.00 | 0.00 | 0.00 | 68 | 1009.7 |
| 20260905143038 | 73 | 73 | 2.0 | 4.0 | 0.00 | 0.00 | 0.00 | 64 | 1009.7 |
| 20260905143009 | 71 | 200 | 1.0 | 5.0 | 0.00 | 0.00 | 0.00 | 67 | 1008.0 |
| 20260905142537 | 73 | 131 | 2.0 | 4.0 | 0.00 | 0.00 | 0.00 | 61 | 1009.9 |
| 20260905142032 | 72 | 232 | 2.0 | 3.0 | 0.00 | 0.00 | 0.00 | 68 | 1009.8 |
| 20260905141527 | 71 | 69 | 1.0 | 3.0 | 0.00 | 0.00 | 0.00 | 65 | 1009.8 |
| 20260905141506 | 70 | 161 | 1.0 | 6.0 | 0.00 | 0.00 | 0.00 | 70 | 1008.0 |
| 20260905141024 | 71 | 121 | 1.0 | 2.0 | 0.00 | 0.00 | 0.00 | 67 | 1009.9 |
| 20260905140523 | 71 | 245 | 2.0 | 4.0 | 0.00 | 0.00 | 0.00 | 69 | 1009.6 |
| 20260905140022 | 69 | 89 | 2.0 | 4.0 | 0.00 | 0.00 | 0.00 | 71 | 1009.8 |
| 20260905135518 | 68 | 71 | 2.0 | 5.0 | 0.00 | 0.00 | 0.00 | 71 | 1010.1 |
| 20260905135014 | 68 | 102 | 1.0 | 4.0 | 0.00 | 0.00 | 0.00 | 70 | 1010.0 |
| 20260905134514 | 68 | 45 | 2.0 | 3.0 | 0.00 | 0.00 | 0.00 | 71 | 1009.9 |
| 20260905134013 | 68 | 100 | 0.0 | 3.0 | 0.00 | 0.00 | 0.00 | 72 | 1009.7 |
| 20260905133508 | 68 | 58 | 0.0 | 4.0 | 0.00 | 0.00 | 0.00 | 72 | 1009.7 |
| 20260905133008 | 69 | 64 | 2.0 | 4.0 | 0.00 | 0.00 | 0.00 | 71 | 1010.0 |
| 20260905132503 | 72 | 328 | 2.0 | 5.0 | 0.00 | 0.00 | 0.00 | 65 | 1010.0 |
| 20260905132002 | 73 | 49 | 0.0 | 3.0 | 0.00 | 0.00 | 0.00 | 68 | 1009.8 |
| 20260905131507 | 69 | 31 | 1.0 | 2.0 | 0.00 | 0.00 | 0.00 | 75 | 1008.0 |
| 20260905131458 | 72 | 42 | 3.0 | 4.0 | 0.00 | 0.00 | 0.00 | 68 | 1009.7 |
| 20260905130953 | 71 | 41 | 0.0 | 3.0 | 0.00 | 0.00 | 0.00 | 71 | 1009.6 |
| 20260905130452 | 70 | 147 | 1.0 | 4.0 | 0.00 | 0.00 | 0.00 | 70 | 1009.8 |
| 20260905130006 | 68 | 122 | 1.0 | 3.0 | 0.00 | 0.00 | 0.00 | 76 | 1008.0 |
| 20260905125952 | 70 | 99 | 2.0 | 4.0 | 0.00 | 0.00 | 0.00 | 71 | 1009.8 |
| 20260905125447 | 69 | 118 | 4.0 | 4.0 | 0.00 | 0.00 | 0.00 | 73 | 1009.5 |
| 20260905124942 | 69 | 66 | 0.0 | 2.0 | 0.00 | 0.00 | 0.00 | 74 | 1009.7 |
| 20260905124506 | 67 | 293 | 1.0 | 3.0 | 0.00 | 0.00 | 0.00 | 79 | 1008.1 |
| 20260905124439 | 69 | 108 | 2.0 | 2.0 | 0.00 | 0.00 | 0.00 | 74 | 1009.7 |
| 20260905123934 | 69 | 253 | 0.0 | 2.0 | 0.00 | 0.00 | 0.00 | 74 | 1009.9 |
| 20260905123430 | 68 | 107 | 3.0 | 3.0 | 0.00 | 0.00 | 0.00 | 77 | 1009.7 |
| 20260905123008 | 66 | 238 | 1.0 | 3.0 | 0.00 | 0.00 | 0.00 | 82 | 1008.0 |
| 20260905122925 | 68 | 237 | 0.0 | 4.0 | 0.00 | 0.00 | 0.00 | 77 | 1009.7 |
| 20260905122425 | 67 | 316 | 1.0 | 3.0 | 0.00 | 0.00 | 0.00 | 79 | 1009.8 |
| 20260905121921 | 67 | 64 | 2.0 | 2.0 | 0.00 | 0.00 | 0.00 | 79 | 1009.9 |
| 20260905121508 | 65 | 212 | 0.0 | 2.0 | 0.00 | 0.00 | 0.00 | 85 | 1008.4 |
| 20260905121416 | 66 | 54 | 1.0 | 2.0 | 0.00 | 0.00 | 0.00 | 83 | 1010.0 |
| 20260905120915 | 65 | 81 | 0.0 | 2.0 | 0.00 | 0.00 | 0.00 | 84 | 1010.3 |
| 20260905120415 | 64 | 6 | 0.0 | 3.0 | 0.00 | 0.00 | 0.00 | 86 | 1010.0 |
| 20260905120007 | 63 | 182 | 0.0 | 1.0 | 0.00 | 0.00 | 0.00 | 88 | 1008.3 |
| 20260905115910 | 63 | 62 | 0.0 | 2.0 | 0.00 | 0.00 | 0.00 | 88 | 1009.8 |
| 20260905115410 | 63 | 88 | 2.0 | 2.0 | 0.00 | 0.00 | 0.00 | 89 | 1009.8 |
| 20260905114905 | 62 | 72 | 0.0 | 2.0 | 0.00 | 0.00 | 0.00 | 90 | 1010.0 |
| 20260905114404 | 62 | 309 | 0.0 | 3.0 | 0.00 | 0.00 | 0.00 | 92 | 1009.7 |
| 20260905113903 | 61 | 71 | 1.0 | 2.0 | 0.00 | 0.00 | 0.00 | 93 | 1009.9 |
| 20260905113359 | 61 | 75 | 2.0 | 3.0 | 0.00 | 0.00 | 0.00 | 93 | 1009.6 |
| 20260905113007 | 61 | 136 | 0.0 | 2.0 | 0.00 | 0.00 | 0.00 | 94 | 1007.8 |
| 20260905112855 | 60 | 80 | 3.0 | 3.0 | 0.00 | 0.00 | 0.00 | 94 | 1009.5 |
| 20260905112350 | 60 | 44 | 0.0 | 3.0 | 0.00 | 0.00 | 0.00 | 94 | 1009.5 |
| 20260905111845 | 60 | 89 | 0.0 | 2.0 | 0.00 | 0.00 | 0.00 | 95 | 1009.4 |
| 20260905111344 | 60 | 62 | 2.0 | 3.0 | 0.00 | 0.00 | 0.00 | 95 | 1009.5 |
| 20260905110844 | 59 | 33 | 0.0 | 3.0 | 0.00 | 0.00 | 0.00 | 95 | 1009.1 |
| 20260905110338 | 59 | 46 | 1.0 | 2.0 | 0.00 | 0.00 | 0.00 | 95 | 1009.5 |
| 20260905105833 | 59 | 55 | 1.0 | 2.0 | 0.00 | 0.00 | 0.00 | 95 | 1009.3 |
| 20260905105333 | 59 | 60 | 1.0 | 2.0 | 0.00 | 0.00 | 0.00 | 95 | 1009.1 |
| 20260905104832 | 59 | 39 | 2.0 | 2.0 | 0.00 | 0.00 | 0.00 | 95 | 1009.2 |
| 20260905104508 | 60 | 69 | 0.0 | 0.0 | 0.00 | 0.00 | 0.00 | 94 | 1007.5 |
| 20260905104329 | 59 | 73 | 1.0 | 2.0 | 0.00 | 0.00 | 0.00 | 95 | 1009.0 |
| 20260905103828 | 59 | 72 | 2.0 | 2.0 | 0.00 | 0.00 | 0.00 | 95 | 1008.9 |
| 20260905103324 | 59 | 59 | 0.0 | 2.0 | 0.00 | 0.00 | 0.00 | 94 | 1008.9 |
| 20260905103007 | 60 | 69 | 0.0 | 0.0 | 0.00 | 0.00 | 0.00 | 93 | 1007.0 |
| 20260905102820 | 59 | 78 | 2.0 | 2.0 | 0.00 | 0.00 | 0.00 | 94 | 1008.7 |
| 20260905102317 | 59 | 89 | 0.0 | 2.0 | 0.00 | 0.00 | 0.00 | 94 | 1008.9 |
| 20260905101816 | 59 | 66 | 2.0 | 2.0 | 0.00 | 0.00 | 0.00 | 94 | 1008.8 |
| 20260905101506 | 60 | 69 | 0.0 | 0.0 | 0.00 | 0.00 | 0.00 | 92 | 1007.0 |
| 20260905101315 | 59 | 53 | 0.0 | 2.0 | 0.00 | 0.00 | 0.00 | 94 | 1008.6 |
| 20260905100809 | 59 | 47 | 0.0 | 2.0 | 0.00 | 0.00 | 0.00 | 94 | 1008.7 |
| 20260905100305 | 59 | 61 | 1.0 | 2.0 | 0.00 | 0.00 | 0.00 | 94 | 1008.4 |
| 20260905100007 | 60 | 69 | 0.0 | 0.0 | 0.00 | 0.00 | 0.00 | 92 | 1006.7 |
| 20260905095805 | 59 | 69 | 2.0 | 3.0 | 0.00 | 0.00 | 0.00 | 94 | 1008.4 |
| 20260905095306 | 59 | 55 | 2.0 | 2.0 | 0.00 | 0.00 | 0.00 | 94 | 1008.6 |
| 20260905094759 | 59 | 57 | 1.0 | 2.0 | 0.00 | 0.00 | 0.00 | 93 | 1008.5 |
| 20260905094506 | 60 | 69 | 0.0 | 0.0 | 0.00 | 0.00 | 0.00 | 91 | 1006.7 |
| 20260905094255 | 59 | 59 | 1.0 | 2.0 | 0.00 | 0.00 | 0.00 | 93 | 1008.6 |
| 20260905093754 | 59 | 68 | 1.0 | 2.0 | 0.00 | 0.00 | 0.00 | 93 | 1008.5 |
| 20260905093250 | 59 | 52 | 1.0 | 2.0 | 0.00 | 0.00 | 0.00 | 93 | 1008.5 |
| 20260905093007 | 61 | 69 | 0.0 | 0.0 | 0.00 | 0.00 | 0.00 | 91 | 1006.6 |
| 20260905092745 | 60 | 51 | 2.0 | 2.0 | 0.00 | 0.00 | 0.00 | 93 | 1008.5 |
| 20260905092241 | 60 | 63 | 1.0 | 2.0 | 0.00 | 0.00 | 0.00 | 93 | 1008.3 |
| 20260905091740 | 60 | 49 | 1.0 | 2.0 | 0.00 | 0.00 | 0.00 | 93 | 1008.6 |
| 20260905091507 | 61 | 69 | 0.0 | 0.0 | 0.00 | 0.00 | 0.00 | 91 | 1006.7 |
| 20260905091235 | 60 | 44 | 1.0 | 2.0 | 0.00 | 0.00 | 0.00 | 93 | 1008.4 |
| 20260905090734 | 60 | 46 | 2.0 | 2.0 | 0.00 | 0.00 | 0.00 | 93 | 1008.5 |
| 20260905090230 | 60 | 70 | 2.0 | 2.0 | 0.00 | 0.00 | 0.00 | 93 | 1008.5 |
| 20260905085729 | 60 | 56 | 2.0 | 2.0 | 0.00 | 0.00 | 0.00 | 93 | 1008.5 |
| 20260905085224 | 60 | 52 | 2.0 | 2.0 | 0.00 | 0.00 | 0.00 | 93 | 1008.6 |
| 20260905084724 | 60 | 65 | 1.0 | 2.0 | 0.00 | 0.00 | 0.00 | 93 | 1008.4 |
| 20260905084508 | 62 | 69 | 0.0 | 0.0 | 0.00 | 0.00 | 0.00 | 90 | 1006.5 |
| 20260905084224 | 60 | 79 | 2.0 | 2.0 | 0.00 | 0.00 | 0.00 | 92 | 1008.4 |
| 20260905083719 | 61 | 68 | 2.0 | 2.0 | 0.00 | 0.00 | 0.00 | 92 | 1008.5 |
| 20260905083215 | 61 | 42 | 1.0 | 2.0 | 0.00 | 0.00 | 0.00 | 92 | 1008.6 |
| 20260905083008 | 62 | 69 | 0.0 | 0.0 | 0.00 | 0.00 | 0.00 | 89 | 1006.7 |
| 20260905082711 | 61 | 35 | 0.0 | 2.0 | 0.00 | 0.00 | 0.00 | 92 | 1008.5 |
| 20260905082206 | 61 | 57 | 1.0 | 1.0 | 0.00 | 0.00 | 0.00 | 92 | 1008.5 |
| 20260905081706 | 61 | 60 | 0.0 | 2.0 | 0.00 | 0.00 | 0.00 | 91 | 1008.6 |
| 20260905081507 | 63 | 69 | 0.0 | 0.0 | 0.00 | 0.00 | 0.00 | 89 | 1006.7 |
| 20260905081202 | 61 | 51 | 1.0 | 2.0 | 0.00 | 0.00 | 0.00 | 91 | 1008.4 |
| 20260905080701 | 62 | 46 | 0.0 | 2.0 | 0.00 | 0.00 | 0.00 | 91 | 1008.5 |
| 20260905080200 | 62 | 46 | 2.0 | 2.0 | 0.00 | 0.00 | 0.00 | 91 | 1008.6 |
| 20260905080006 | 63 | 69 | 0.0 | 0.0 | 0.00 | 0.00 | 0.00 | 88 | 1006.8 |
| 20260905075700 | 62 | 50 | 1.0 | 2.0 | 0.00 | 0.00 | 0.00 | 90 | 1008.8 |
| 20260905075159 | 62 | 37 | 0.0 | 2.0 | 0.00 | 0.00 | 0.00 | 90 | 1008.7 |
| 20260905074658 | 62 | 56 | 1.0 | 2.0 | 0.00 | 0.00 | 0.00 | 90 | 1008.7 |
| 20260905074507 | 64 | 69 | 0.0 | 0.0 | 0.00 | 0.00 | 0.00 | 87 | 1006.8 |
| 20260905074154 | 62 | 57 | 0.0 | 2.0 | 0.00 | 0.00 | 0.00 | 90 | 1008.7 |
| 20260905073649 | 62 | 68 | 1.0 | 2.0 | 0.00 | 0.00 | 0.00 | 90 | 1009.0 |